STARLINK-35128, 65628

Orbit data source: Space-Track

STARLINK-35128, 65628 is a payload satellite owned by SpaceX/Seattle (US) in LEO that was launched on Thu, 18 Sep 2025 UTC via an FALCON 9 launch vehicle from the Air Force Eastern Test Range (AFETR). Payload-class satellites include a variety of spacecraft equipped with specific instruments for various scientific and technological missions. These include communications satellites like Starlink; space stations such as the ISS; scientific satellites like the Hubble; Earth observation satellites from companies like Planet Labs, Umbra, and HawkEye 360; GPS; miniature CubeSats for education and research; and military/defense satellites.

Loading next visibility...
Identifier
65628, 2025-210G
Orbit
LEO
Country
Flag of USUS
Related business
Manufacturer
SpaceX/Seattle
Mission
Operational Commercial Communications
Bus & Motor
STARLINK V2MO, Unknown motor
Mass
575 kg wet, ~530 kg dry
Launch date (UTC)
2025-09-18 (9 months ago)
Launch vehicle
FALCON 9
Launch site
Air Force Eastern Test Range (AFETR)
Object type
Payload
Rocket body
Debris
Shape & HBR
Box + 2 Pan, 17.7 m
Radar Cross Section
36.964 m², Large (>1 m²)

Expand to show TLE details & history
Last TLE update: 12 hours ago

TLE from 12 hours ago
0 STARLINK-35128
1 65628U 25210G   26171.35846370  .00013040  00000-0  39627-3 0  9998
2 65628  53.1572 188.5300 0001056  98.0174 262.0948 15.34409750 43475
Epoch: 2026-06-20T08:36Z
TLE epoch observation values (Epoch: 2026-06-20T08:36:11.263Z)
Latitude
-0.00007°
Longitude
150.90879°
Altitude
463.675 km
Speed
7.636 km/s
True Right ascension
12h 34m 07s
True Declination
0° 00' 00"
Sunlit
Object was in daylight at epoch
Visualization orbit readout
Latitude
Unknown
Longitude
Unknown
Altitude
Unknown
Speed
Unknown
Apparent Right ascension
Unknown
Apparent Declination
Unknown
Sunlit
N/A
Visualization observer readout
Local Sidereal Time
07:12:29
Azimuth
Unknown
Elevation
Unknown
Doppler factor
Unknown
Orbital elements
Apogee altitude
463.654 km
Perigee altitude
462.209 km
Semi-major axis
6,841.069 km
Eccentricity
0.00011
Inclination
53.1572°
RAAN
188.53°
Arg. of periapsis
98.0174°
True anomaly
262.08281°
Mean anomaly
262.0948°
Eccentric anomaly
262.08881°
Mean motion
3.83581 °/min
Orbital period
93.85 mins
BSTAR
0.00039627
Loading maneuver chart data...
Computing Atmospheric mass density...
Loading historical data...
Loading historical data...
Loading historical data...
Loading historical data...
Loading historical data...
Loading historical data...
Loading historical data...

Documentation

Showing up to 5 results
|